Regional Weather Roundup
Issued by NWS Sterling, VA

Home | Current Version | Previous Version | Text Only | Print | Product List | Glossary Off
Versions: 1 2 3 4 5 6 7 8 9 10 11 12 13 14 15 16 17 18 19 20 21 22 23 24 25 26 27 28 29 30 31 32 33 34 35 36 37 38 39 40 41 42 43 44 45 46 47 48 49 50

000
ASUS41 KLWX 250611
RWRLWX

REGIONAL WEATHER ROUNDUP
NATIONAL WEATHER SERVICE BALTIMORE MD/WASHINGTON DC
200 AM EDT WED APR 25 2018

Note: "FAIR" indicates few or no clouds below 12,000 feet
with no significant weather and/or obstructions to visibility.
 TC=TEMPERATURE CELSIUS

 * =Non NWS site. Station does not report precipitation (e.g. rain,
    snow, etc.), thunder, or fog.

DCZ001-MDZ009-015-VAZ040>042-051-053>054-250700-
WASHINGTON METRO

CITY           SKY/WX    TMP DP  RH WIND       PRES   REMARKS
WASHINGTON NAT LGT RAIN  56  53  90 NE7       29.89F
DULLES         RAIN      53  53 100 N7        29.89F FOG
QUANTICO       LGT RAIN  56  55  97 NE9       29.87F
COLLEGE PARK*  CLOUDY    54  52  95 NE3       29.89F
LEESBURG*      LGT RAIN  50  50 100 NE7       29.91F
MANASSAS*      RAIN      54  53  97 N6        29.89F
GAITHERSBURG*  LGT RAIN  53  52  96 NE6       29.90F

$$

MDZ006>007-011-014-250700-
BALTIMORE METRO

CITY           SKY/WX    TMP DP  RH WIND       PRES   REMARKS
BWI AIRPORT    LGT RAIN  55  55 100 E12       29.89F FOG
MD SCIENCE CTR   N/A     57  55  93 MISG      29.93F
MARTIN STATE   HVY RAIN  55  55 100 NE5       29.93F
ANNAPOLIS      RAIN      58  58 100 E8        29.89F FOG
FORT MEADE*    CLOUDY    54  52  94 E3        29.92F

$$

MDZ012-015-019>023-250700-
MARYLAND EASTERN SHORE

CITY           SKY/WX    TMP DP  RH WIND       PRES   REMARKS
OCEAN CITY     LGT RAIN  52  52 100 E13       29.91F FOG
SALISBURY      CLOUDY    58  57  97 SE13      29.90F
BAY BRIDGE AP* LGT RAIN  57  55  94 SE12      29.89F FOG
CAMBRIDGE*     CLOUDY    59  59 100 SE10      29.89F
EASTON*        RAIN      58  56  94 SE9       29.93F

$$

MDZ017>025-250700-
SOUTHERN MARYLAND

CITY           SKY/WX    TMP DP  RH WIND       PRES   REMARKS
PATUXENT RIVER CLOUDY    59  56  89 SE9       29.87F FOG
ST INIGOES     NOT AVBL
LEONARDTOWN*   CLOUDY    57  55  94 E6        29.88F

$$

MDZ003>005-250700-
NORTH CENTRAL MARYLAND

CITY           SKY/WX    TMP DP  RH WIND       PRES   REMARKS
FREDERICK*     RAIN      52  52 100 N10       29.95F
HAGERSTOWN APT CLOUDY    53  50  89 NE8       29.93F
WESTMINSTER*   LGT RAIN  52  52 100 NE6       29.92F

$$

MDZ501>502-250700-
WESTERN MARYLAND

CITY           SKY/WX    TMP DP  RH WIND       PRES   REMARKS
OAKLAND*       CLOUDY    43  43 100 E16       29.89F VSB 1
CUMBERLAND*    CLOUDY    52  52 100 CALM      29.97F

$$

VAZ025>031-250700-
SHENANDOAH VALLEY

CITY           SKY/WX    TMP DP  RH WIND       PRES   REMARKS
WINCHESTER*    DRIZZLE   50  50 100 CALM      29.92F
FRONT ROYAL*   CLOUDY    50  50 100 N5        29.90F
LURAY*         CLOUDY    52  50  93 N12       29.88F
NEW MARKET*    CLOUDY    51  50  95 NE7       29.88F
STAUNTON*      DRIZZLE   50  50  98 N5        29.90F
WAYNESBORO*    CLOUDY    50  50 100 N6        29.88F

$$

WVZ021-048>050-054>055-250700-
EASTERN WEST VIRGINIA PANHANDLE

CITY           SKY/WX    TMP DP  RH WIND       PRES   REMARKS
MARTINSBURG    CLOUDY    51  51 100 N8        29.91F FOG
PETERSBURG*    LGT RAIN  50  49  97 CALM      29.91F

$$

VAZ036>039-050-250700-
CENTRAL FOOTHILLS

CITY           SKY/WX    TMP DP  RH WIND       PRES   REMARKS
CHARLOTTESVILL CLOUDY    54  52  93 N10       29.86F
CULPEPER*      LGT RAIN  54  52  95 N7        29.89F
ORANGE*        LGT RAIN  52  52 100 N9G16     29.87F
GORDONSVILLE*  CLOUDY    53  53 100 NE8       29.86F
WARRENTON*     RAIN      54  51  90 N6        29.87F

$$

VAZ055>057-250700-
NORTH AND CENTRAL PIEDMONT

CITY           SKY/WX    TMP DP  RH WIND       PRES   REMARKS
FREDERICKSBRG* RAIN      55  55 100 N5        29.85F
STAFFORD*      RAIN      55  55 100 N5        29.90F

$$

NCZ024-NYZ072-PAZ021-071-VAZ022-071-250700-
OTHER REGIONAL OBSERVATIONS

CITY           SKY/WX    TMP DP  RH WIND       PRES   REMARKS
NEW YORK CITY  LGT RAIN  54  52  93 VRB6      30.10F
PHILADELPHIA   LGT RAIN  53  53 100 E14       29.98F FOG
PITTSBURGH     CLOUDY    51  49  92 E6        29.89F
ROANOKE        LGT RAIN  53  52  96 N8        29.84F
RICHMOND       DRIZZLE   59  59 100 E8        29.82F
RALEIGH        MOCLDY    61  61 100 SE5       29.77F

$$

ANZ530>537-250700-
MARINE OBSERVATIONS

STATION/POSITION TIME  TEMP    WIND        PRES
                       AIR SEA DIR/SP/G
                 (UTC) (F)     (DEG/KT/KT) (MB)
THOMAS PT LIGHT  0600   56 53  180/  3/  3 1013.2F
BALT KEY BRIDGE  0542   55      80/  8/  9 1012.9F
COVE POINT       0542   56     190/ 10/ 13 1012.5F
LEWISETTA        0542   56 56  100/  8/ 10 1011.3F
SOLOMONS ISLAND  0542   56 53  130/ 10/ 12 1011.2F
PINEY POINT      0542          130/ 11/ 12   N/A

$$




USA.gov is the U.S. government's official web portal to all federal, state and local government web resources and services.